QPF
0.00 0.00 0.00 0.00 0.00 0.00 0.00 0.00 0.00 0.00 0.00 0.00 0.00 0.00 0.00 0.00 0.00 0.00 0.00 0.00 0.00 0.00 0.01 0.01 0.01 0.03 0.04 0.07 0.08 0.08 0.10 0.12 0.12 0.09 0.10 0.09 0.08 0.07 0.08 0.08 0.08 0.07 0.08 0.09
0.00 0.00 0.00 0.00 0.00 0.00 0.00 0.00 0.00 0.00 0.00 0.00 0.00 0.00 0.00 0.00 0.00 0.00 0.00 0.00 0.00 0.00 0.01 0.01 0.01 0.02 0.04 0.08 0.10 0.09 0.07 0.08 0.09 0.09 0.09 0.09 0.09 0.07 0.07 0.07 0.08 0.07 0.05 0.06
0.00 0.00 0.00 0.00 0.00 0.00 0.00 0.00 0.00 0.00 0.00 0.00 0.00 0.00 0.00 0.00 0.00 0.00 0.00 0.00 0.00 0.00 0.00 0.01 0.01 0.02 0.05 0.10 0.13 0.11 0.10 0.11 0.11 0.11 0.10 0.09 0.10 0.12 0.11 0.08 0.09 0.08 0.05 0.05
0.00 0.00 0.00 0.00 0.00 0.00 0.00 0.00 0.00 0.00 0.00 0.00 0.00 0.00 0.00 0.00 0.00 0.00 0.00 0.00 0.00 0.01 0.01 0.01 0.02 0.04 0.08 0.13 0.11 0.08 0.08 0.10 0.13 0.14 0.12 0.09 0.09 0.12 0.11 0.08 0.07 0.06 0.06 0.07
0.00 0.00 0.00 0.00 0.00 0.00 0.00 0.00 0.00 0.00 0.00 0.00 0.00 0.00 0.00 0.00 0.00 0.00 0.00 0.00 0.00 0.02 0.02 0.03 0.02 0.05 0.08 0.09 0.08 0.06 0.07 0.09 0.12 0.14 0.17 0.14 0.13 0.13 0.14 0.12 0.10 0.08 0.08 0.08
0.00 0.00 0.00 0.00 0.00 0.00 0.00 0.00 0.00 0.00 0.00 0.00 0.00 0.00 0.00 0.00 0.00 0.00 0.00 0.00 0.01 0.01 0.01 0.01 0.01 0.02 0.03 0.03 0.04 0.04 0.06 0.07 0.10 0.11 0.15 0.15 0.15 0.15 0.16 0.13 0.12 0.10 0.09 0.08
0.00 0.00 0.00 0.00 0.00 0.00 0.00 0.00 0.00 0.00 0.00 0.00 0.00 0.00 0.00 0.00 0.00 0.00 0.00 0.00 0.00 0.00 0.00 0.00 0.01 0.01 0.00 0.01 0.02 0.02 0.05 0.05 0.08 0.11 0.12 0.13 0.16 0.16 0.14 0.12 0.11 0.09 0.08 0.08
0.00 0.00 0.00 0.00 0.00 0.00 0.00 0.00 0.00 0.00 0.00 0.00 0.00 0.00 0.00 0.00 0.00 0.00 0.00 0.00 0.00 0.00 0.00 0.00 0.00 0.00 0.01 0.01 0.01 0.02 0.03 0.04 0.07 0.10 0.12 0.12 0.14 0.14 0.12 0.13 0.10 0.09 0.08 0.08
0.00 0.00 0.00 0.00 0.00 0.00 0.00 0.00 0.00 0.00 0.00 0.00 0.00 0.00 0.00 0.00 0.00 0.00 0.00 0.00 0.00 0.00 0.00 0.00 0.00 0.00 0.00 0.01 0.01 0.02 0.03 0.05 0.08 0.11 0.13 0.14 0.12 0.12 0.10 0.12 0.12 0.11 0.11 0.09
0.00 0.00 0.00 0.00 0.00 0.00 0.00 0.00 0.00 0.00 0.00 0.00 0.00 0.00 0.00 0.00 0.00 0.00 0.00 0.00 0.01 0.00 0.00 0.00 0.00 0.00 0.00 0.01 0.01 0.02 0.03 0.06 0.09 0.09 0.10 0.12 0.12 0.11 0.10 0.10 0.11 0.10 0.10 0.10
0.00 0.00 0.00 0.00 0.00 0.00 0.00 0.00 0.00 0.00 0.00 0.00 0.00 0.00 0.00 0.00 0.00 0.00 0.00 0.00 0.01 0.01 0.00 0.00 0.00 0.00 0.01 0.01 0.01 0.02 0.04 0.09 0.11 0.08 0.08 0.08 0.07 0.08 0.08 0.08 0.08 0.09 0.08 0.08
0.00 0.00 0.00 0.00 0.00 0.00 0.00 0.00 0.00 0.00 0.00 0.00 0.00 0.00 0.00 0.00 0.00 0.00 0.00 0.01 0.00 0.00 0.01 0.01 0.00 0.01 0.00 0.00 0.01 0.03 0.03 0.07 0.09 0.07 0.06 0.05 0.04 0.05 0.07 0.07 0.08 0.11 0.11 0.09
0.00 0.00 0.00 0.00 0.00 0.00 0.00 0.00 0.00 0.00 0.00 0.00 0.00 0.00 0.00 0.00 0.00 0.00 0.00 0.01 0.01 0.01 0.01 0.01 0.01 0.01 0.01 0.01 0.01 0.02 0.02 0.03 0.04 0.04 0.03 0.04 0.04 0.05 0.07 0.08 0.09 0.11 0.13 0.11
0.00 0.00 0.00 0.00 0.00 0.00 0.00 0.00 0.00 0.00 0.00 0.00 0.00 0.00 0.00 0.00 0.00 0.00 0.01 0.01 0.01 0.01 0.01 0.02 0.01 0.01 0.01 0.02 0.01 0.01 0.01 0.02 0.02 0.02 0.03 0.04 0.05 0.07 0.07 0.08 0.09 0.10 0.10 0.11
0.00 0.00 0.00 0.00 0.00 0.00 0.00 0.00 0.00 0.00 0.00 0.00 0.00 0.01 0.00 0.00 0.00 0.00 0.01 0.01 0.01 0.02 0.02 0.02 0.02 0.02 0.02 0.02 0.02 0.02 0.02 0.03 0.03 0.04 0.03 0.04 0.07 0.08 0.07 0.07 0.08 0.08 0.08 0.08
0.00 0.00 0.00 0.00 0.00 0.00 0.00 0.00 0.00 0.00 0.00 0.00 0.00 0.00 0.00 0.00 0.00 0.00 0.01 0.01 0.02 0.02 0.02 0.02 0.02 0.02 0.03 0.03 0.02 0.02 0.03 0.04 0.06 0.07 0.05 0.05 0.06 0.06 0.07 0.06 0.06 0.07 0.09 0.11
0.00 0.00 0.00 0.00 0.00 0.00 0.00 0.00 0.00 0.00 0.00 0.00 0.00 0.00 0.00 0.00 0.00 0.00 0.01 0.01 0.02 0.03 0.02 0.02 0.02 0.01 0.02 0.02 0.02 0.02 0.02 0.06 0.09 0.09 0.08 0.06 0.05 0.04 0.05 0.05 0.06 0.07 0.10 0.10
0.00 0.00 0.00 0.00 0.00 0.00 0.00 0.00 0.00 0.00 0.00 0.00 0.00 0.00 0.00 0.00 0.00 0.01 0.01 0.01 0.02 0.02 0.01 0.02 0.02 0.01 0.01 0.01 0.01 0.02 0.02 0.04 0.08 0.10 0.07 0.06 0.05 0.05 0.05 0.06 0.09 0.10 0.11 0.12
0.00 0.00 0.00 0.00 0.00 0.00 0.00 0.00 0.00 0.00 0.00 0.00 0.00 0.00 0.00 0.00 0.01 0.01 0.01 0.01 0.01 0.01 0.01 0.01 0.01 0.01 0.01 0.01 0.01 0.01 0.03 0.04 0.05 0.07 0.07 0.07 0.07 0.09 0.07 0.07 0.14 0.14 0.09 0.10
0.00 0.00 0.00 0.00 0.00 0.01 0.00 0.00 0.00 0.00 0.00 0.00 0.00 0.00 0.01 0.01 0.01 0.01 0.00 0.00 0.00 0.01 0.01 0.01 0.01 0.01 0.01 0.01 0.01 0.01 0.02 0.03 0.03 0.05 0.07 0.07 0.07 0.07 0.07 0.06 0.13 0.18 0.14 0.10
0.00 0.00 0.00 0.00 0.00 0.00 0.00 0.00 0.00 0.01 0.00 0.00 0.00 0.00 0.01 0.01 0.01 0.01 0.01 0.01 0.01 0.01 0.01 0.01 0.01 0.01 0.01 0.01 0.02 0.03 0.03 0.03 0.03 0.04 0.05 0.05 0.05 0.06 0.08 0.07 0.12 0.18 0.19 0.16
0.01 0.00 0.00 0.00 0.00 0.00 0.00 0.00 0.00 0.01 0.00 0.00 0.00 0.00 0.00 0.01 0.01 0.01 0.01 0.01 0.01 0.01 0.02 0.01 0.01 0.01 0.01 0.02 0.03 0.04 0.05 0.06 0.05 0.04 0.04 0.05 0.06 0.06 0.05 0.06 0.09 0.13 0.18 0.21
0.01 0.01 0.00 0.00 0.00 0.00 0.00 0.00 0.00 0.00 0.00 0.00 0.00 0.01 0.01 0.01 0.01 0.01 0.01 0.01 0.01 0.01 0.02 0.03 0.02 0.02 0.02 0.03 0.05 0.06 0.05 0.05 0.04 0.03 0.03 0.03 0.05 0.06 0.06 0.05 0.08 0.11 0.13 0.13
0.01 0.00 0.01 0.01 0.00 0.00 0.00 0.00 0.00 0.00 0.00 0.00 0.01 0.01 0.02 0.01 0.01 0.01 0.01 0.01 0.01 0.01 0.02 0.03 0.03 0.04 0.04 0.04 0.05 0.05 0.05 0.05 0.05 0.05 0.03 0.03 0.04 0.05 0.05 0.05 0.05 0.07 0.08 0.08
0.01 0.01 0.01 0.01 0.01 0.01 0.00 0.00 0.00 0.00 0.00 0.01 0.01 0.01 0.01 0.01 0.02 0.02 0.02 0.02 0.02 0.02 0.02 0.03 0.04 0.05 0.04 0.03 0.04 0.06 0.04 0.03 0.03 0.03 0.02 0.02 0.03 0.04 0.04 0.04 0.05 0.05 0.07 0.09
0.00 0.00 0.01 0.01 0.01 0.01 0.01 0.00 0.00 0.00 0.01 0.01 0.01 0.02 0.03 0.02 0.02 0.02 0.02 0.03 0.03 0.03 0.03 0.03 0.04 0.03 0.03 0.03 0.04 0.04 0.04 0.03 0.03 0.02 0.02 0.03 0.04 0.05 0.05 0.05 0.05 0.06 0.06 0.07
MSLP
1010.53 1010.94 1011.20 1011.33 1011.35 1011.28 1011.17 1011.04 1010.88 1010.70 1010.49 1010.23 1009.91 1009.56 1009.20 1008.86 1008.58 1008.41 1008.36 1008.43 1008.62 1008.89 1009.22 1009.56 1009.90 1010.22 1010.53 1010.84 1011.17 1011.54 1011.95 1012.41 1012.89 1013.37 1013.84 1014.28 1014.68 1015.03 1015.35 1015.64 1015.91 1016.18 1016.46 1016.74
1010.72 1011.05 1011.24 1011.31 1011.30 1011.25 1011.18 1011.12 1011.06 1010.98 1010.84 1010.64 1010.36 1010.01 1009.62 1009.24 1008.91 1008.68 1008.58 1008.61 1008.77 1009.01 1009.32 1009.64 1009.95 1010.24 1010.53 1010.81 1011.12 1011.48 1011.90 1012.36 1012.87 1013.38 1013.88 1014.34 1014.73 1015.07 1015.35 1015.59 1015.82 1016.05 1016.29 1016.56
1010.70 1010.97 1011.10 1011.14 1011.13 1011.12 1011.13 1011.17 1011.21 1011.23 1011.18 1011.04 1010.78 1010.42 1009.99 1009.54 1009.14 1008.85 1008.68 1008.66 1008.77 1008.98 1009.26 1009.56 1009.85 1010.12 1010.38 1010.65 1010.94 1011.30 1011.72 1012.22 1012.76 1013.31 1013.85 1014.35 1014.77 1015.11 1015.37 1015.59 1015.78 1015.97 1016.18 1016.42
1010.46 1010.67 1010.76 1010.80 1010.83 1010.89 1011.00 1011.16 1011.32 1011.45 1011.48 1011.38 1011.14 1010.75 1010.27 1009.74 1009.26 1008.88 1008.63 1008.55 1008.61 1008.79 1009.04 1009.32 1009.59 1009.85 1010.09 1010.34 1010.62 1010.98 1011.42 1011.94 1012.53 1013.14 1013.74 1014.29 1014.76 1015.13 1015.41 1015.62 1015.79 1015.96 1016.14 1016.35
1010.00 1010.17 1010.25 1010.32 1010.41 1010.57 1010.80 1011.09 1011.38 1011.61 1011.71 1011.65 1011.40 1010.98 1010.43 1009.83 1009.26 1008.78 1008.46 1008.32 1008.33 1008.48 1008.70 1008.97 1009.23 1009.47 1009.69 1009.93 1010.21 1010.57 1011.02 1011.57 1012.20 1012.86 1013.53 1014.14 1014.68 1015.10 1015.42 1015.65 1015.83 1015.98 1016.14 1016.34
1009.37 1009.51 1009.61 1009.73 1009.91 1010.18 1010.54 1010.96 1011.36 1011.68 1011.85 1011.81 1011.55 1011.09 1010.49 1009.81 1009.16 1008.61 1008.22 1008.02 1008.00 1008.12 1008.33 1008.59 1008.84 1009.07 1009.29 1009.52 1009.78 1010.13 1010.58 1011.14 1011.80 1012.50 1013.22 1013.90 1014.49 1014.98 1015.35 1015.62 1015.82 1015.98 1016.13 1016.31
1008.64 1008.77 1008.91 1009.09 1009.37 1009.76 1010.23 1010.76 1011.26 1011.65 1011.86 1011.84 1011.57 1011.08 1010.43 1009.70 1009.00 1008.40 1007.97 1007.74 1007.70 1007.82 1008.03 1008.29 1008.54 1008.77 1008.98 1009.19 1009.44 1009.76 1010.18 1010.73 1011.38 1012.09 1012.83 1013.54 1014.18 1014.72 1015.14 1015.45 1015.68 1015.86 1016.03 1016.21
1007.90 1008.03 1008.21 1008.47 1008.83 1009.31 1009.88 1010.49 1011.05 1011.49 1011.73 1011.72 1011.45 1010.95 1010.29 1009.54 1008.82 1008.22 1007.79 1007.55 1007.52 1007.64 1007.86 1008.13 1008.39 1008.63 1008.83 1009.02 1009.23 1009.51 1009.89 1010.38 1010.98 1011.67 1012.38 1013.09 1013.74 1014.30 1014.75 1015.10 1015.37 1015.59 1015.78 1015.97
1007.23 1007.38 1007.59 1007.90 1008.33 1008.87 1009.50 1010.15 1010.74 1011.20 1011.45 1011.45 1011.19 1010.71 1010.07 1009.36 1008.67 1008.10 1007.70 1007.49 1007.48 1007.62 1007.86 1008.15 1008.42 1008.65 1008.85 1009.01 1009.19 1009.41 1009.73 1010.14 1010.67 1011.27 1011.92 1012.58 1013.20 1013.75 1014.21 1014.58 1014.88 1015.13 1015.36 1015.59
1006.71 1006.85 1007.09 1007.43 1007.89 1008.45 1009.09 1009.73 1010.32 1010.76 1011.01 1011.03 1010.81 1010.38 1009.81 1009.17 1008.56 1008.06 1007.71 1007.56 1007.58 1007.74 1008.00 1008.29 1008.57 1008.81 1008.99 1009.14 1009.28 1009.45 1009.70 1010.02 1010.44 1010.94 1011.50 1012.07 1012.63 1013.13 1013.58 1013.95 1014.27 1014.56 1014.83 1015.10
1006.34 1006.48 1006.72 1007.06 1007.51 1008.05 1008.65 1009.25 1009.79 1010.20 1010.45 1010.48 1010.31 1009.97 1009.50 1008.97 1008.48 1008.07 1007.81 1007.71 1007.76 1007.94 1008.21 1008.50 1008.77 1009.01 1009.19 1009.32 1009.44 1009.58 1009.76 1010.01 1010.33 1010.72 1011.17 1011.64 1012.11 1012.55 1012.96 1013.32 1013.66 1013.97 1014.28 1014.61
1006.09 1006.23 1006.46 1006.78 1007.19 1007.67 1008.19 1008.71 1009.18 1009.55 1009.78 1009.84 1009.74 1009.50 1009.16 1008.78 1008.41 1008.12 1007.93 1007.88 1007.96 1008.14 1008.38 1008.66 1008.92 1009.15 1009.33 1009.47 1009.60 1009.72 1009.87 1010.07 1010.32 1010.63 1010.98 1011.35 1011.74 1012.11 1012.48 1012.82 1013.16 1013.50 1013.85 1014.23
1005.91 1006.05 1006.26 1006.55 1006.90 1007.30 1007.73 1008.15 1008.53 1008.84 1009.05 1009.15 1009.13 1009.00 1008.80 1008.57 1008.34 1008.16 1008.05 1008.04 1008.12 1008.28 1008.49 1008.72 1008.96 1009.18 1009.37 1009.53 1009.68 1009.83 1009.99 1010.18 1010.41 1010.66 1010.95 1011.25 1011.57 1011.89 1012.22 1012.55 1012.89 1013.24 1013.63 1014.04
1005.73 1005.88 1006.09 1006.34 1006.63 1006.95 1007.27 1007.59 1007.88 1008.14 1008.33 1008.46 1008.52 1008.51 1008.45 1008.36 1008.26 1008.19 1008.15 1008.16 1008.22 1008.34 1008.49 1008.68 1008.88 1009.08 1009.29 1009.49 1009.68 1009.88 1010.09 1010.32 1010.55 1010.80 1011.07 1011.34 1011.62 1011.90 1012.20 1012.52 1012.86 1013.23 1013.63 1014.06
1005.51 1005.68 1005.89 1006.13 1006.37 1006.61 1006.85 1007.07 1007.28 1007.48 1007.66 1007.82 1007.95 1008.05 1008.12 1008.16 1008.19 1008.20 1008.22 1008.24 1008.29 1008.35 1008.45 1008.57 1008.73 1008.92 1009.13 1009.37 1009.62 1009.90 1010.17 1010.45 1010.73 1011.01 1011.28 1011.55 1011.81 1012.09 1012.38 1012.70 1013.04 1013.42 1013.82 1014.26
1005.22 1005.43 1005.67 1005.90 1006.12 1006.32 1006.49 1006.64 1006.78 1006.93 1007.10 1007.27 1007.46 1007.66 1007.84 1008.01 1008.14 1008.24 1008.30 1008.34 1008.37 1008.39 1008.43 1008.50 1008.61 1008.78 1008.99 1009.26 1009.56 1009.89 1010.23 1010.57 1010.90 1011.22 1011.51 1011.79 1012.06 1012.33 1012.63 1012.94 1013.29 1013.67 1014.07 1014.50
1004.87 1005.14 1005.42 1005.70 1005.92 1006.10 1006.23 1006.33 1006.43 1006.54 1006.69 1006.88 1007.11 1007.38 1007.65 1007.91 1008.14 1008.32 1008.44 1008.50 1008.53 1008.53 1008.52 1008.55 1008.62 1008.76 1008.96 1009.23 1009.55 1009.91 1010.29 1010.66 1011.02 1011.35 1011.66 1011.94 1012.22 1012.50 1012.79 1013.11 1013.46 1013.84 1014.24 1014.65
1004.50 1004.85 1005.21 1005.53 1005.80 1005.99 1006.11 1006.19 1006.26 1006.34 1006.47 1006.66 1006.91 1007.22 1007.56 1007.90 1008.22 1008.47 1008.66 1008.77 1008.81 1008.82 1008.80 1008.80 1008.84 1008.94 1009.11 1009.35 1009.65 1009.99 1010.35 1010.70 1011.05 1011.36 1011.65 1011.92 1012.18 1012.45 1012.74 1013.06 1013.42 1013.80 1014.20 1014.60
1004.19 1004.61 1005.05 1005.45 1005.78 1006.01 1006.15 1006.23 1006.28 1006.34 1006.44 1006.62 1006.87 1007.20 1007.58 1007.98 1008.37 1008.70 1008.96 1009.14 1009.24 1009.27 1009.27 1009.26 1009.28 1009.34 1009.46 1009.63 1009.87 1010.13 1010.42 1010.70 1010.97 1011.22 1011.46 1011.68 1011.91 1012.16 1012.44 1012.76 1013.12 1013.51 1013.92 1014.33
1003.98 1004.48 1005.00 1005.48 1005.88 1006.17 1006.35 1006.44 1006.48 1006.52 1006.60 1006.75 1006.99 1007.31 1007.71 1008.15 1008.59 1008.99 1009.33 1009.59 1009.76 1009.85 1009.89 1009.90 1009.90 1009.92 1009.97 1010.07 1010.19 1010.35 1010.51 1010.68 1010.83 1010.98 1011.13 1011.28 1011.46 1011.67 1011.93 1012.25 1012.62 1013.03 1013.47 1013.92
1003.90 1004.47 1005.07 1005.63 1006.10 1006.45 1006.67 1006.79 1006.83 1006.86 1006.91 1007.02 1007.22 1007.53 1007.92 1008.37 1008.85 1009.31 1009.72 1010.06 1010.32 1010.49 1010.58 1010.62 1010.62 1010.61 1010.60 1010.60 1010.61 1010.63 1010.65 1010.67 1010.69 1010.72 1010.76 1010.83 1010.95 1011.12 1011.37 1011.69 1012.08 1012.53 1013.01 1013.51
1003.98 1004.60 1005.26 1005.88 1006.42 1006.83 1007.09 1007.24 1007.29 1007.30 1007.32 1007.40 1007.56 1007.82 1008.18 1008.63 1009.12 1009.63 1010.10 1010.52 1010.85 1011.10 1011.26 1011.34 1011.35 1011.32 1011.26 1011.18 1011.08 1010.97 1010.86 1010.75 1010.64 1010.56 1010.50 1010.50 1010.57 1010.72 1010.96 1011.30 1011.72 1012.21 1012.75 1013.32
1004.20 1004.85 1005.55 1006.22 1006.80 1007.26 1007.56 1007.73 1007.80 1007.80 1007.80 1007.84 1007.95 1008.17 1008.49 1008.91 1009.40 1009.92 1010.44 1010.91 1011.31 1011.63 1011.85 1011.98 1012.02 1011.99 1011.90 1011.76 1011.59 1011.40 1011.19 1010.98 1010.79 1010.62 1010.51 1010.47 1010.51 1010.66 1010.91 1011.27 1011.73 1012.27 1012.87 1013.52
1004.53 1005.20 1005.92 1006.61 1007.22 1007.70 1008.04 1008.23 1008.31 1008.32 1008.30 1008.31 1008.38 1008.55 1008.83 1009.22 1009.68 1010.20 1010.73 1011.23 1011.68 1012.06 1012.33 1012.51 1012.59 1012.58 1012.49 1012.34 1012.15 1011.92 1011.67 1011.42 1011.20 1011.02 1010.89 1010.85 1010.90 1011.07 1011.35 1011.75 1012.24 1012.83 1013.49 1014.19
1004.97 1005.63 1006.34 1007.03 1007.64 1008.13 1008.49 1008.70 1008.80 1008.81 1008.79 1008.78 1008.84 1008.97 1009.21 1009.56 1009.99 1010.48 1011.00 1011.52 1011.99 1012.40 1012.72 1012.94 1013.07 1013.10 1013.05 1012.93 1012.76 1012.55 1012.33 1012.11 1011.91 1011.77 1011.68 1011.68 1011.78 1011.99 1012.32 1012.75 1013.29 1013.90 1014.59 1015.32
1005.49 1006.14 1006.82 1007.48 1008.07 1008.55 1008.91 1009.13 1009.24 1009.27 1009.27 1009.27 1009.31 1009.43 1009.64 1009.95 1010.35 1010.82 1011.31 1011.82 1012.29 1012.72 1013.07 1013.33 1013.50 1013.58 1013.59 1013.53 1013.43 1013.29 1013.15 1013.01 1012.90 1012.83 1012.83 1012.91 1013.08 1013.34 1013.72 1014.18 1014.74 1015.37 1016.06 1016.78
Thickness
5792 5786 5785 5793 5799 5802 5798 5794 5792 5798 5809 5805 5804 5807 5814 5818 5816 5814 5812 5808 5804 5800 5800 5797 5792 5788 5782 5777 5771 5767 5762 5758 5754 5750 5746 5745 5744 5744 5744 5744 5742 5741 5740 5739
5778 5779 5795 5800 5797 5792 5789 5785 5789 5795 5804 5801 5800 5804 5814 5815 5813 5813 5810 5807 5804 5800 5798 5795 5790 5786 5781 5776 5771 5766 5761 5757 5754 5751 5748 5746 5745 5745 5745 5744 5742 5740 5739 5738
5777 5790 5798 5789 5784 5780 5783 5784 5788 5788 5796 5801 5797 5797 5805 5811 5813 5812 5811 5810 5808 5803 5798 5793 5789 5785 5781 5775 5770 5766 5761 5757 5754 5752 5748 5745 5742 5742 5742 5741 5740 5739 5739 5738
5779 5791 5786 5781 5781 5782 5776 5791 5789 5786 5783 5788 5791 5783 5798 5806 5805 5807 5808 5808 5807 5804 5800 5795 5789 5784 5781 5777 5772 5767 5762 5757 5753 5751 5748 5746 5742 5740 5742 5741 5740 5739 5738 5737
5776 5784 5779 5776 5784 5785 5786 5793 5789 5786 5783 5783 5788 5783 5796 5803 5798 5803 5805 5805 5806 5804 5800 5795 5791 5785 5782 5777 5771 5766 5762 5757 5754 5751 5749 5746 5744 5743 5742 5740 5738 5737 5738 5737
5784 5790 5788 5788 5793 5791 5789 5784 5782 5783 5783 5765 5781 5777 5784 5800 5797 5800 5802 5802 5801 5801 5798 5794 5790 5785 5780 5776 5771 5766 5760 5756 5753 5751 5749 5746 5743 5742 5740 5738 5736 5735 5737 5737
5766 5776 5788 5793 5782 5783 5782 5770 5759 5756 5759 5766 5782 5775 5785 5799 5801 5799 5798 5798 5799 5799 5794 5789 5785 5781 5776 5773 5769 5765 5760 5755 5753 5750 5748 5746 5743 5741 5738 5737 5736 5735 5736 5736
5755 5759 5779 5786 5783 5778 5777 5777 5762 5752 5757 5771 5771 5772 5791 5800 5801 5800 5799 5798 5796 5794 5792 5787 5783 5779 5775 5771 5768 5764 5759 5755 5752 5750 5748 5746 5743 5741 5739 5738 5737 5736 5737 5738
5763 5764 5785 5789 5792 5788 5775 5776 5792 5779 5772 5766 5773 5780 5790 5796 5794 5794 5793 5792 5790 5789 5788 5785 5782 5779 5774 5770 5766 5763 5758 5755 5752 5750 5746 5744 5742 5740 5739 5738 5736 5736 5736 5737
5774 5761 5774 5783 5785 5785 5790 5787 5778 5770 5752 5749 5763 5768 5778 5782 5785 5788 5788 5787 5786 5786 5784 5782 5779 5777 5773 5770 5765 5761 5757 5754 5752 5749 5747 5745 5742 5740 5739 5737 5735 5734 5735 5735
5775 5761 5763 5770 5768 5771 5771 5774 5776 5775 5775 5757 5752 5769 5793 5788 5787 5786 5785 5785 5784 5783 5782 5778 5776 5774 5770 5766 5762 5758 5755 5752 5750 5747 5746 5743 5741 5739 5737 5735 5734 5733 5732 5731
5771 5766 5759 5766 5780 5789 5783 5780 5775 5761 5759 5767 5765 5771 5791 5791 5791 5787 5783 5781 5780 5778 5777 5774 5771 5768 5765 5762 5759 5755 5752 5750 5748 5746 5743 5741 5739 5737 5735 5734 5733 5732 5730 5729
5765 5756 5743 5746 5757 5769 5772 5779 5782 5781 5775 5766 5762 5768 5784 5786 5784 5782 5778 5775 5773 5771 5769 5768 5765 5763 5760 5758 5755 5752 5750 5747 5746 5743 5740 5738 5736 5735 5733 5732 5731 5730 5728 5727
5767 5758 5756 5751 5761 5769 5765 5769 5776 5776 5766 5765 5769 5772 5774 5775 5773 5772 5771 5769 5768 5765 5763 5762 5759 5756 5755 5753 5751 5748 5746 5744 5742 5739 5736 5733 5732 5732 5731 5730 5728 5727 5726 5724
5760 5753 5760 5769 5777 5776 5771 5769 5770 5771 5776 5771 5773 5774 5772 5772 5770 5767 5766 5763 5760 5758 5757 5755 5753 5750 5749 5748 5745 5744 5742 5740 5738 5735 5733 5730 5729 5728 5726 5725 5723 5722 5721 5720
5753 5751 5753 5753 5763 5766 5764 5769 5769 5769 5773 5774 5773 5768 5773 5769 5767 5761 5758 5757 5754 5752 5751 5749 5747 5745 5743 5742 5740 5739 5737 5736 5734 5731 5729 5727 5726 5723 5721 5719 5718 5717 5715 5714
5747 5745 5743 5744 5753 5751 5745 5760 5763 5765 5770 5771 5764 5764 5763 5758 5754 5751 5751 5751 5749 5747 5745 5743 5741 5739 5737 5737 5736 5733 5732 5731 5729 5727 5725 5723 5720 5718 5716 5714 5712 5710 5708 5708
5740 5740 5744 5745 5736 5722 5750 5761 5763 5761 5760 5764 5761 5758 5756 5751 5746 5744 5745 5743 5741 5740 5738 5737 5736 5734 5733 5732 5731 5729 5727 5725 5723 5721 5719 5717 5714 5711 5709 5706 5705 5703 5702 5700
5739 5736 5739 5738 5730 5734 5735 5748 5753 5749 5746 5754 5753 5749 5746 5744 5740 5735 5734 5735 5733 5732 5731 5730 5731 5729 5728 5726 5725 5723 5720 5719 5716 5714 5712 5711 5708 5705 5702 5699 5697 5696 5694 5692
5728 5733 5733 5729 5724 5719 5736 5746 5751 5746 5734 5744 5745 5740 5738 5738 5734 5727 5724 5724 5723 5723 5724 5723 5723 5721 5719 5718 5718 5716 5713 5711 5709 5707 5705 5704 5702 5699 5696 5693 5690 5689 5687 5685
5713 5716 5721 5721 5721 5729 5733 5738 5738 5723 5729 5736 5736 5734 5732 5730 5729 5720 5717 5714 5714 5713 5714 5714 5713 5711 5710 5710 5709 5706 5704 5702 5701 5699 5697 5695 5694 5692 5689 5686 5684 5681 5679 5677
5710 5711 5710 5717 5712 5713 5721 5726 5725 5721 5726 5728 5727 5725 5722 5716 5714 5710 5707 5704 5704 5703 5704 5704 5702 5699 5699 5700 5700 5696 5693 5692 5691 5690 5688 5686 5685 5683 5681 5679 5676 5673 5671 5667
5702 5704 5712 5708 5703 5703 5712 5713 5712 5717 5715 5716 5716 5715 5711 5706 5702 5699 5697 5695 5694 5694 5694 5694 5692 5689 5688 5689 5689 5686 5684 5684 5683 5681 5678 5676 5675 5673 5672 5670 5668 5665 5662 5660
5686 5692 5695 5692 5690 5692 5696 5699 5702 5705 5705 5706 5706 5704 5701 5696 5692 5690 5687 5685 5683 5683 5682 5682 5681 5678 5676 5676 5676 5675 5674 5674 5673 5670 5668 5666 5664 5662 5660 5660 5659 5657 5654 5651
5683 5685 5687 5682 5679 5681 5683 5687 5689 5692 5694 5695 5695 5693 5691 5687 5682 5680 5677 5674 5673 5671 5671 5670 5669 5667 5665 5664 5664 5664 5663 5663 5661 5659 5657 5655 5653 5650 5646 5642 5639 5639 5634 5635
5677 5679 5681 5681 5679 5681 5675 5676 5679 5680 5681 5682 5682 5680 5678 5676 5673 5670 5667 5664 5663 5661 5660 5659 5657 5656 5654 5654 5653 5652 5652 5652 5651 5648 5646 5644 5642 5639 5636 5631 5623 5616 5617 5615